Sigfox identifier Datetime Temperature Humidity SNR
00386725 2018-10-09 08:55:25 20.4 39 17.4
00386725 2018-10-09 07:51:29 20.4 39 17.3
00386725 2018-10-09 06:47:28 20.4 39 17.1
00386725 2018-10-09 05:43:32 20.4 39 16.7
00386725 2018-10-09 04:39:34 20.4 39 16.3
00386725 2018-10-09 01:27:41 20.4 38 15.4
00386725 2018-10-09 00:23:44 20.4 38 15
00386725 2018-10-08 23:19:46 20.4 38 14.7
00386725 2018-10-08 22:15:48 20.4 38 14.1
00386725 2018-10-08 21:11:47 20.4 38 14.2
00386725 2018-10-08 20:07:49 20.4 37 13.2
00386725 2018-10-08 19:03:51 20.3 37 17.8
00386725 2018-10-08 17:59:53 20.2 37 17.7
00386725 2018-10-08 16:55:53 20.2 37 17.7
00386725 2018-10-08 15:51:54 20.2 37 17.7
00386725 2018-10-08 14:47:57 20 37 17.6
00386725 2018-10-08 13:44:00 20 37 17.5
00386725 2018-10-08 11:36:05 19.8 35 17.5
00386725 2018-10-08 10:32:12 19.8 35 17.5
00386725 2018-10-08 08:24:14 19.8 36 17.5
00386725 2018-10-08 06:16:20 19.8 36 17.5
00386725 2018-10-08 05:12:23 19.9 37 17.4
00386725 2018-10-08 04:08:24 19.9 37 17.4
00386725 2018-10-08 03:04:26 19.9 37 17.4
00386725 2018-10-08 02:00:31 19.9 38 17.3
00386725 2018-10-08 00:56:31 20 38 17.3
00386725 2018-10-07 23:52:33 20 38 17.3
00386725 2018-10-07 22:48:29 20 38 17.3
00386725 2018-10-07 21:44:32 20.1 39 17.2
00386725 2018-10-07 19:36:34 20.2 39 17.2
00386725 2018-10-07 18:32:29 20.1 39 17.3
00386725 2018-10-07 17:28:30 20.1 39 17.3
00386725 2018-10-07 16:24:26 20.2 39 17.2
00386725 2018-10-07 15:20:29 20.2 39 17.3
00386725 2018-10-07 14:16:33 20.2 39 17.2
00386725 2018-10-07 13:12:35 20.2 39 17.2
00386725 2018-10-07 12:08:41 20.2 39 11.2
00386725 2018-10-07 10:00:49 20.2 39 11.1
00386725 2018-10-07 08:56:49 20.2 39 11.1
00386725 2018-10-07 07:52:53 20.2 40 10.9
00386725 2018-10-07 06:48:54 20.2 40 10.9
00386725 2018-10-07 05:44:54 20.3 40 10.7
00386725 2018-10-07 03:36:57 20.4 40 10.5
00386725 2018-10-07 02:33:00 20.4 40 10.4
00386725 2018-10-07 01:29:02 20.4 40 10.5
00386725 2018-10-07 00:25:07 20.4 40 10.6
00386725 2018-10-06 23:21:07 20.4 40 10.6
00386725 2018-10-06 22:17:11 20.4 40 11
00386725 2018-10-06 19:05:22 20.4 40 11.7
00386725 2018-10-06 18:01:25 20.5 40 11.7
00386725 2018-10-06 16:57:33 20.5 40 12
00386725 2018-10-06 15:53:39 20.5 40 17.4
00386725 2018-10-06 14:49:40 20.4 40 17.6
00386725 2018-10-06 13:45:48 20.5 41 17.6
00386725 2018-10-06 12:41:49 20.5 41 17.6
00386725 2018-10-06 11:37:53 20.5 41 17.6
00386725 2018-10-06 10:33:57 20.5 41 17.5
00386725 2018-10-06 09:30:03 20.6 41 17.5
00386725 2018-10-06 08:26:09 20.6 41 17.5
00386725 2018-10-06 07:22:08 20.6 41 17.5
00386725 2018-10-06 06:18:08 20.6 42 17.5
00386725 2018-10-06 05:14:11 20.6 42 17.5
00386725 2018-10-06 04:10:13 20.6 42 17.5
00386725 2018-10-06 03:06:15 20.8 42 17.5
00386725 2018-10-06 02:02:18 20.8 43 17.5
00386725 2018-10-06 00:58:13 20.8 43 17.6
00386725 2018-10-05 23:54:16 20.8 43 17.7
00386725 2018-10-05 22:50:14 20.8 43 17.8
00386725 2018-10-05 21:46:13 21 44 18
00386725 2018-10-05 20:42:17 21 44 18.1
00386725 2018-10-05 19:38:13 21 44 18.3
00386725 2018-10-05 18:34:13 21 45 18.4
00386725 2018-10-05 17:30:18 21 45 18.5
00386725 2018-10-05 16:26:21 21 45 18.6
00386725 2018-10-05 15:22:23 21 44 18.8
00386725 2018-10-05 14:18:29 21 44 18.9
00386725 2018-10-05 13:14:31 21 45 12.3
00386725 2018-10-05 06:50:54 20.4 30 11.7
00386725 2018-10-05 05:46:57 20.4 29 11.6
00386725 2018-10-05 03:39:09 20.5 29 11.5
00386725 2018-10-05 02:35:11 20.6 29 11.4
00386725 2018-10-05 01:31:13 20.6 30 11.3
00386725 2018-10-05 00:27:13 20.6 30 11.3
00386725 2018-10-04 23:23:13 20.7 30 11.7
00386725 2018-10-04 22:19:12 20.8 30 11.9
00386725 2018-10-04 21:15:13 20.8 30 12.4
00386725 2018-10-04 20:11:13 20.8 29 12.7
00386725 2018-10-04 13:47:09 20.5 30 13.3
00386725 2018-10-04 12:43:09 20.5 30 13.3
00386725 2018-10-04 11:39:05 20.6 31 14.7
00386725 2018-10-04 10:35:03 20.6 35 15.3
00386725 2018-10-04 09:30:59 20.2 40 0